User: anonymous   Login
Location: Oshawa
(43.9000°N, 78.8670°W)
Time: 18:22:09
(UTC-05:00)
Language:

Thor Agena Rocket - Orbit

View from above orbital plane
View from above orbital plane
View from above satellite
View from above satellite

Ground track
Ground track

The orbit data is extracted from the following two-line orbital elements,

1 00733U 64002A   17049.61288279  .00000011  00000-0  21744-4 0  9993
2 00733  99.1195 228.8989 0034254 161.5810 198.6620 14.32257503765333
Epoch (UTC): 18 February 2017 14:42:33
Eccentricity: 0.0034254
inclination: 99.1195°
perigee height: 759 km
apogee height: 809 km
right ascension of ascending node: 228.8989°
argument of perigee: 161.5810°
revolutions per day: 14.32257503
mean anomaly at epoch: 198.6620°
orbit number at epoch: 76533

The dashed part of the orbit path shows where the satellite is in the earth's shadow,  

DLR